DateTimeUTC,F1_A11,F1_S11,BsB_S11,BsG_S11,BsR_S11,BbsB_S11,BbsG_S11,BbsR_S11,BaB_A11,BaG_A11,BaR_A11,Tu_S11,T_S11,Uu_S11,U_S11,P_S11,T1_A11
2021-03-30T18:00:00Z,00000200,21000000,,,,,,,-000.06,-000.11,-000.11,16.9,24.1,,00.0,0650.1,31.0
2021-03-30T18:01:00Z,00000200,21000000,,,,,,,-000.11,-000.18,0000.24,16.9,24.1,,00.0,0650.1,31.0
2021-03-30T18:02:00Z,00000200,21000000,,,,,,,0000.21,0000.24,-000.17,16.9,24.1,,00.0,0650.1,30.9
2021-03-30T18:03:00Z,00000200,61000000,,,,,,,-000.08,0000.41,0000.70,16.9,24.1,,00.0,0650.1,30.9
2021-03-30T18:04:00Z,00000200,41000000,0001.84,0001.50,0000.52,-000.08,0000.15,0000.46,0000.82,0000.27,0000.05,17.0,23.9,00.0,00.0,0651.0,30.9
2021-03-30T18:05:00Z,00000200,01000000,0002.02,0001.31,0000.42,0000.37,0000.47,-000.09,0000.24,0000.46,0000.39,17.1,23.9,00.0,00.0,0651.1,31.0
2021-03-30T18:06:00Z,00000200,01000000,0001.84,0001.33,0000.49,0000.22,0000.26,-000.00,0000.31,0000.44,-000.01,17.0,23.9,00.0,00.0,0651.0,31.0
2021-03-30T18:07:00Z,00000200,01000000,0001.57,0001.38,0000.47,0000.38,-000.00,0000.35,0000.94,0000.32,0000.19,17.0,23.9,00.0,00.0,0651.0,31.0
2021-03-30T18:08:00Z,00000200,01000000,0001.39,0001.19,0000.43,0000.15,0000.46,0000.02,0000.36,0000.46,0000.18,17.1,23.9,00.0,00.0,0651.0,31.0
2021-03-30T18:09:00Z,00000200,01000000,0001.79,0001.51,0000.49,0000.14,0000.27,0000.22,0000.75,0000.63,0001.07,17.1,23.9,00.0,00.0,0651.0,31.0
2021-03-30T18:10:00Z,00000200,01000000,0002.28,0001.22,0000.64,0000.01,0000.07,-000.22,0000.11,0000.18,0000.10,17.1,23.8,00.0,00.0,0651.0,30.9
2021-03-30T18:11:00Z,00000200,01000000,0002.01,0001.29,0000.80,-000.20,0000.55,0000.51,0001.09,0000.83,0000.19,17.1,23.8,00.0,00.0,0650.9,30.9
2021-03-30T18:12:00Z,00000200,01000000,0001.94,0001.00,0000.58,0000.10,-000.06,0000.40,0000.48,0000.29,0000.72,17.1,23.8,00.0,00.0,0650.9,30.9
2021-03-30T18:13:00Z,00000200,01000000,0001.62,0001.37,0000.43,0000.33,0000.18,0000.17,0000.23,0000.56,0000.27,17.0,23.8,00.0,00.0,0650.9,30.9
2021-03-30T18:14:00Z,00000200,01000000,0001.45,0001.24,0000.72,0000.18,0000.25,0000.02,0000.58,0000.40,0000.30,17.0,23.8,00.0,00.0,0650.9,30.9
2021-03-30T18:15:00Z,00000200,01000000,0002.47,0001.38,0000.75,0000.38,0000.27,0000.00,0000.35,0000.92,0000.33,17.0,23.8,00.0,00.0,0650.9,30.9
2021-03-30T18:16:00Z,00000200,01000000,0002.54,0001.63,0000.68,0000.12,0000.42,0000.23,0000.67,0000.07,0000.19,17.0,23.8,00.0,00.0,0650.7,31.0
2021-03-30T18:17:00Z,00000200,01000000,0001.68,0001.42,0000.53,0000.69,0000.26,-000.03,0000.65,0000.63,0000.57,17.0,23.8,00.0,00.0,0650.7,30.9
2021-03-30T18:18:00Z,00000200,01000000,0001.38,0001.14,0000.64,0000.55,0000.40,0000.24,0000.88,0000.42,0000.86,17.0,23.8,00.0,00.0,0650.7,30.9
2021-03-30T18:19:00Z,00000200,01000000,0001.75,0001.19,0000.79,0000.31,0000.26,0000.53,0000.11,0000.07,-000.01,17.0,23.8,00.0,00.0,0650.7,30.9
2021-03-30T18:20:00Z,00000200,01000000,0001.35,0001.04,0000.41,0000.12,0000.29,0000.05,0000.70,0000.93,0000.50,17.0,23.7,00.0,00.0,0650.8,30.9
2021-03-30T18:21:00Z,00000200,01000000,0001.78,0001.37,0000.43,0000.29,0000.19,0000.15,0000.53,0000.54,0000.32,17.0,23.7,00.0,00.0,0650.8,30.9
2021-03-30T18:22:00Z,00000200,01000000,0001.80,0001.19,0000.69,0000.58,0000.15,0000.07,0000.57,0000.33,-000.04,17.0,23.7,00.0,00.0,0650.7,30.9
2021-03-30T18:23:00Z,00000200,01000000,0002.40,0001.55,0000.48,0000.76,0000.32,-000.01,0001.02,0000.79,0000.83,17.0,23.7,00.1,00.0,0650.6,30.9
2021-03-30T18:24:00Z,00000200,01000000,0002.13,0001.01,0000.45,0000.39,0000.41,-000.02,0000.17,0000.43,0000.70,16.9,23.7,00.0,00.0,0650.6,30.9
2021-03-30T18:25:00Z,00000200,01000000,0002.39,0001.41,0000.76,0000.18,0000.16,0000.13,0000.94,0000.59,0000.10,16.9,23.7,00.0,00.0,0650.7,30.9
2021-03-30T18:26:00Z,00000200,01000000,0002.17,0001.13,0000.82,0000.51,0000.10,0000.06,0000.51,0000.28,0000.67,16.9,23.7,00.0,00.0,0650.6,30.9
2021-03-30T18:27:00Z,00000200,01000000,0001.26,0001.41,0000.44,0000.36,0000.32,-000.03,0000.14,0000.45,0000.17,16.9,23.7,00.0,00.0,0650.7,30.9
2021-03-30T18:28:00Z,00000200,01000000,0001.32,0001.42,0000.66,0000.25,0000.41,0000.65,0000.63,0000.65,0000.06,16.9,23.7,00.0,00.0,0650.7,30.9
2021-03-30T18:29:00Z,00000200,01000000,0001.73,0001.20,0000.53,-000.06,0000.28,0000.17,0000.43,0000.38,0000.61,16.9,23.7,00.0,00.0,0650.7,30.9
2021-03-30T18:30:00Z,00000200,01000000,0002.18,0001.31,0000.77,0000.23,0000.18,0000.19,0000.81,0000.70,0000.26,16.9,23.7,00.0,00.0,0650.7,30.9
2021-03-30T18:31:00Z,00000200,01000000,0002.06,0001.30,0000.47,0000.65,0000.23,0000.19,0000.58,0000.91,0000.14,16.9,23.7,00.0,00.0,0650.6,30.9
2021-03-30T18:32:00Z,00000200,01000000,0002.21,0001.10,0000.36,0000.34,0000.23,0000.18,0000.43,-000.07,0000.77,16.8,23.7,00.0,00.0,0650.7,30.9
2021-03-30T18:33:00Z,00000200,01000000,0001.72,0001.66,0000.72,0000.18,0000.43,-000.02,0000.94,0001.02,0000.49,16.8,23.7,00.0,00.0,0650.6,30.9
2021-03-30T18:34:00Z,00000200,01000000,0001.68,0001.45,0000.52,0000.25,0000.30,0000.29,0000.36,0000.28,0000.28,16.8,23.7,00.0,00.0,0650.6,30.9
2021-03-30T18:35:00Z,00000200,01000000,0002.06,0001.08,0000.39,0000.16,-000.06,0000.24,0000.73,0000.53,0000.33,16.8,23.7,00.0,00.0,0650.7,30.9
2021-03-30T18:36:00Z,00000200,01000000,0002.25,0001.42,0000.79,0000.40,0000.25,0000.14,-000.01,0000.64,0000.53,16.8,23.7,00.0,00.0,0650.6,30.9
2021-03-30T18:37:00Z,00000200,01000000,0001.54,0001.15,0000.23,0000.07,0000.25,0000.20,0001.04,0000.29,0000.48,16.8,23.7,00.0,00.0,0650.7,30.9
2021-03-30T18:38:00Z,00000200,01000000,0002.34,0001.31,0000.64,0000.26,0000.28,0000.05,0000.79,0000.72,0000.46,16.8,23.6,00.0,00.0,0650.6,30.9
2021-03-30T18:39:00Z,00000200,01000000,0001.76,0001.31,0000.38,0000.07,0000.23,0000.23,0000.15,0000.53,0000.06,16.8,23.6,00.0,00.0,0650.6,30.9
2021-03-30T18:40:00Z,00000200,01000000,0001.03,0001.22,0000.69,-000.19,0000.19,0000.06,0000.71,0000.10,0000.67,16.8,23.6,00.0,00.0,0650.6,30.9
2021-03-30T18:41:00Z,00000200,01000000,0001.23,0001.57,0000.31,0000.18,0000.33,-000.19,0001.24,0000.78,0000.54,16.8,23.6,00.0,00.0,0650.5,30.9
2021-03-30T18:42:00Z,00000200,01000000,0002.18,0001.51,0000.51,0000.03,0000.47,0000.19,0000.41,0000.42,0000.28,16.8,23.6,00.0,00.0,0650.5,30.9
2021-03-30T18:43:00Z,00000200,01000000,0002.02,0001.33,0000.59,0000.27,0000.46,0000.03,0000.54,0000.89,0000.78,16.8,23.6,00.0,00.0,0650.5,30.9
2021-03-30T18:44:00Z,00000200,01000000,0001.50,0001.15,0000.60,-000.07,0000.20,0000.17,0000.56,0000.87,0000.55,16.8,23.6,00.0,00.0,0650.4,30.9
2021-03-30T18:45:00Z,00000200,01000000,0001.51,0001.28,0000.80,0000.03,0000.48,0000.22,0001.25,0000.25,0000.34,16.8,23.6,00.1,00.0,0650.4,30.8
2021-03-30T18:46:00Z,00000200,01000000,0001.81,0001.13,0000.77,-000.30,0000.33,0000.33,0000.11,0000.00,0000.16,16.7,23.5,00.1,00.0,0650.3,30.8
2021-03-30T18:47:00Z,00000200,01000000,0001.48,0001.30,0000.58,0000.21,0000.21,0000.23,0001.17,0001.64,0000.63,16.7,23.5,00.1,00.1,0650.3,30.9
2021-03-30T18:48:00Z,00000200,01000000,0001.60,0001.36,0000.81,0000.66,0000.41,0000.21,0000.24,0000.17,0000.45,16.7,23.5,00.1,00.1,0650.3,30.8
2021-03-30T18:49:00Z,00000200,01000000,0002.03,0001.24,0000.60,0000.17,0000.37,0000.21,0001.19,0001.01,0000.73,16.6,23.5,00.1,00.1,0650.2,30.8
2021-03-30T18:50:00Z,00000200,01000000,0001.77,0001.55,0000.87,0000.51,0000.22,0000.18,0000.57,0000.61,0000.29,16.6,23.4,00.1,00.1,0650.2,30.8
2021-03-30T18:51:00Z,00000200,01000000,0001.83,0001.30,0000.87,0000.50,0000.46,0000.17,0000.74,0000.59,0000.38,16.6,23.4,00.1,00.1,0650.1,30.8
2021-03-30T18:52:00Z,00000200,01000000,0002.22,0001.39,0000.87,0000.27,0000.27,0000.13,0000.85,0001.07,0000.84,16.6,23.4,00.1,00.1,0650.1,30.8
2021-03-30T18:53:00Z,00000200,01000000,0001.58,0001.26,0000.81,0000.42,0000.16,0000.21,0000.36,0000.30,0000.11,16.6,23.4,00.1,00.1,0650.2,30.9
2021-03-30T18:54:00Z,00000200,01000000,0002.21,0001.23,0000.76,0000.51,0000.04,0000.42,0000.71,0000.71,0000.61,16.5,23.4,00.1,00.1,0650.2,30.9
2021-03-30T18:55:00Z,00000200,01000000,0001.77,0001.42,0000.89,0000.49,0000.31,0000.28,0000.74,0000.49,0000.47,16.6,23.4,00.1,00.1,0650.1,30.9
2021-03-30T18:56:00Z,00000200,01000000,0001.89,0001.28,0000.45,0000.17,0000.46,0000.12,0000.37,0000.67,0000.43,16.6,23.4,00.2,00.1,0650.1,30.9
2021-03-30T18:57:00Z,00000200,41000000,,,,,,,-000.20,0000.19,-000.29,16.7,23.5,,00.0,0650.1,30.9
2021-03-30T18:58:00Z,00000200,61000000,,,,,,,0000.64,-000.00,0000.77,16.5,23.6,00.0,00.0,0649.2,30.9
2021-03-30T18:59:00Z,00000200,21000000,,,,,,,0000.00,-000.07,-000.17,16.5,23.7,,00.0,0649.1,30.9
